Other Public Products
Issued by NWS Grand Forks, ND

Home | Current Version | Previous Version | Text Only | Print | Product List | Glossary Off
Versions: 1 2 3 4 5 6 7 8 9 10 11 12 13 14 15 16 17 18 19 20 21 22 23 24 25 26 27 28 29 30 31 32 33 34 35 36 37 38 39 40 41 42 43 44 45 46 47 48 49 50

000
FPUS83 KFGF 250310
OPUFGF
PRAIRIE TO PINES WEATHER ROUNDUP
NATIONAL WEATHER SERVICE EASTERN NORTH DAKOTA/GRAND FORKS ND
1000 PM CDT SAT JUN 24 2017

 **SATELLITE DATA USED TO AUGMENT SKY COVER AT AUTOMATED STATIONS**
 *****  WEATHER ACROSS EASTERN NORTH DAKOTA  *****

CITY           SKY/WX    TMP DP  RH WIND       PRES   REMARKS
GRAND FORKS    LGT RAIN  52  47  83 NW12      30.16R
GRAND FORKS AF CLOUDY    51  46  81 NW8       30.18R
GRAND CITY NWS NOT AVBL
BUXTON         NOT AVBL
DEVILS LAKE    MOCLDY    52  46  80 NW7       30.21R
FARGO          CLOUDY    51  47  86 NW17G28   30.17R
WAHPETON ARPT  CLOUDY    54  43  66 NW16G23   30.16R
$$

 *****  WEATHER ACROSS CENTRAL AND WESTERN NORTH DAKOTA  *****

CITY           SKY/WX    TMP DP  RH WIND       PRES   REMARKS
JAMESTOWN      CLOUDY    54  46  74 NW15      30.21R
BISMARCK       FAIR      58  38  47 N8        30.27R
MINOT          FAIR      52  39  61 NW6       30.24S
MINOT AFB      NOT AVBL
GARRISON         N/A     48  38  68 N7        30.26R
WILLISTON      FAIR      55  36  48 CALM      30.26F
DICKINSON      FAIR      55  31  39 N7        30.28S
HETTINGER      FAIR      56  31  38 N10       30.31R
$$

 *****  OTHER OBSERVATIONS NORTHEAST NORTH DAKOTA  *****

CITY           SKY/WX    TMP DP  RH WIND       PRES   REMARKS
WALHALLA       NOT AVBL
LANGDON        FAIR      48  45  87 N7        30.19R
CAVALIER       NOT AVBL
GRAFTON        FAIR      52  46  82 NW10      30.19R
CANDO          NOT AVBL
FORT TOTTEN      N/A     55  45  68 NW7       29.95S
ROLLA            N/A     46  46 100 NW8       30.22S
RUGBY          NOT AVBL
 ***** THE ABOVE OBSERVATIONS ARE NON NWS ARE NOT QUALITY
        CONTROLLED AND MAY MIS-REPORT RAIN FOR SNOW...
$$

 *****  OTHER OBSERVATIONS SOUTHEAST NORTH DAKOTA *****

CITY           SKY/WX    TMP DP  RH WIND       PRES   REMARKS
COOPERSTOWN    MOCLDY    52  43  71 NW13      30.21R
VALLEY CITY    CLOUDY    52  41  66 N9        30.22R
OAKES          NOT AVBL
GWINNER        MOCLDY    55  43  62 N15G22    30.20R
SHEYENNE NWR     N/A     54  46  73 N12       29.95S
BUFFALO        NOT AVBL
WYNDMERE       NOT AVBL
 ***** THE ABOVE OBSERVATIONS ARE NON NWS ARE NOT QUALITY
       CONTROLLED AND MAY MIS-REPORT RAIN FOR SNOW...
$$

  *****  WEATHER ACROSS NORTHERN MINNESOTA  *****

CITY           SKY/WX    TMP DP  RH WIND       PRES   REMARKS
FLAG ISLAND    CLOUDY    54  48  82 N18       30.07R
WARROAD        LGT RAIN  52  46  82 NW12G21   30.09R
ROSEAU         DRIZZLE   50  45  81 N12G17    30.10R
HALLOCK        DRIZZLE   52  48  87 N13       30.15R
THF RVR FALLS  LGT RAIN  50  48  93 NW17      30.13R
HALSTAD        NOT AVBL
FOSSTON        DRIZZLE   48  48 100 NW16      30.10R
BAUDETTE       CLOUDY    55  53  93 N14       30.05R
WASKISH        CLOUDY    55  52  88 N3        30.03R
CROOKSTON      CLOUDY    50  48  93 NW12      30.15R
$$
  *****  WEATHER ACROSS CENTRAL AND WEST MINNESOTA  *****

CITY           SKY/WX    TMP DP  RH WIND       PRES   REMARKS
BEMIDJI        CLOUDY    52  51  97 W9        30.05R
PARK RAPIDS    CLOUDY    53  47  79 NW12      30.07R
WADENA         CLOUDY    52  46  82 NW10      30.09R
DETROIT LAKES  CLOUDY    50  46  87 NW18G24   30.13R FOG
MOORHEAD       CLOUDY    48  46  93 NW18G24   30.17R FOG
FERGUS FALLS   CLOUDY    54  46  76 NW20G25   30.13R
ELBOW LAKE     MOCLDY    54  49  82 NW13G21   30.14R
MORRIS MN      MOCLDY    55  48  76 NW13      30.13R
STAPLES        CLOUDY    52  48  87 W12       30.09R
WHEATON        CLOUDY    57  41  54 NW15G23   30.17R
$$
  *****  WEATHER ELSEWHERE ACROSS MINNESOTA  *****

CITY           SKY/WX    TMP DP  RH WIND       PRES   REMARKS
DULUTH         MOCLDY    53  50  89 W7        29.99R
INTRNTL FALLS  LGT RAIN  54  51  90 NW10G23   30.01R
ELY            CLOUDY    54  52  94 CALM      29.98R
CLOQUET        CLOUDY    55  46  71 NW3       30.00R
BRAINERD       CLOUDY    54  50  86 NW10      30.06R
HIBBING        CLOUDY    54  48  80 NW8       29.99R
ALEXANDRIA     CLOUDY    54  49  83 NW12      30.12R
SAINT CLOUD    CLOUDY    58  48  69 NW15G21   30.07R
MINNEAPOLIS    FAIR      60  45  57 W9        30.07R
$$

  *****  WEATHER ACROSS SOUTH DAKOTA  *****

CITY           SKY/WX    TMP DP  RH WIND       PRES   REMARKS
SIOUX FALLS    FAIR      58  42  55 NW10      30.18R
BROOKINGS      CLOUDY    57  44  62 NW12      30.19R
WATERTOWN      CLOUDY    55  45  68 NW17G23   30.19R
HURON          FAIR      56  44  64 N9        30.23R
SISSETON         N/A     58  46  64 NW18G26   30.16R
ABERDEEN       CLOUDY    58  44  60 NW14      30.22R
MITCHELL       FAIR      60  42  51 N12       30.23R
PIERRE         FAIR      55  41  59 N9        30.24R
MOBRIDGE       FAIR      57  39  51 N8        30.24R
RAPID CITY     FAIR      58  30  34 N9        30.29R
$$

  *****  SOME WEATHER IN NEARBY STATES *****

CITY           SKY/WX    TMP DP  RH WIND       PRES   REMARKS
GLASGOW MT     FAIR      63  36  36 NE7       30.26S
GREAT FALLS MT MOCLDY    65  39  38 NE16      30.31R
CHEYENNE WY    CLOUDY    62  36  37 E7        30.38R
SCOTTSBLUFF NE FAIR      62  40  44 E7        30.29R
OMAHA NE       FAIR      68  48  48 CALM      30.15R
DES MOINES IA  FAIR      69  42  37 N9G18     30.12R
DAVENPORT IA   FAIR      61  49  64 N8        30.09R
CHICAGO IL     FAIR      65  45  48 NW8       30.05R
EAU CLAIRE WI  FAIR      53  48  83 W7        30.02R
LA CROSSE WI   FAIR      58  51  78 S7        30.05R
$$

  *****  SOME NATIONAL WEATHER *****

CITY           SKY/WX    TMP DP  RH WIND       PRES   REMARKS
LA GUARDIA NY  FAIR      82  59  45 W10G18    29.88R
RALEIGH NC     CLOUDY    72  71  97 W3        30.02S
ATLANTA GA     TSTM      74  71  91 NE5       30.10R
NEW ORLEANS LA FAIR      75  74  96 CALM      30.07R
OKLAHOMA CITY  MOCLDY    77  54  44 SE9       30.20R
ALBUQUERQUE NM FAIR      75  48  38 S25G33    30.20R
SALT LAKE CITY FAIR      82  31  15 N7        30.12S
LOS ANGELES CA FAIR      65  61  87 W15       29.85S
BOISE ID       FAIR      84  34  16 W7        30.08S
SEATTLE WA     FAIR      85  54  34 N8        30.00S
$$

*** WEATHER ACROSS MANITOBA...SASKATCHEWAN AND ONTARIO ***
                ***ONTARIO***

CITY           SKY/WX    TMP DP  RH WIND       PRES   REMARKS
GERALDTON      MOCLDY    57  43  58 E5        29.94R
THUNDER BAY    MOCLDY    55  52  88 NW3       29.93R
SIOUX LOOKOUT  MOCLDY    52  48  87 N3        30.02R
TORONTO        PTCLDY    63  54  72 W8        29.91R
BIG TROUT LK   CLEAR     43  37  81 NE2       30.05R
PICKLE LAKE    NOT AVBL
DRYDEN         PTCLDY    50  48  93 N7        30.04R
KENORA         CLOUDY    52  48  87 N6        30.08R
$$
                *** MANITOBA***

CITY           SKY/WX    TMP DP  RH WIND       PRES   REMARKS
BRANDON        PTCLDY    48  45  87 NW5       30.21R
DAUPHIN        MOCLDY    54  45  71 N6        30.21R
ISLAND LAKE    MOCLDY    55  41  58 W5        30.09S
PILOT MOUND      N/A     46  43  87 NW3         N/A
THE PAS        PTCLDY    50  45  81 W3        30.19S
THOMPSON       PTCLDY    55  36  47 N6        30.11R
WINNIPEG       PTCLDY    50  46  87 NW8       30.16R
LYNN LAKE      CLEAR     55  37  50 NW6       30.17R
CHURCHILL      MOCLDY    57  39  51 SW7       30.01F
GILLAM         PTCLDY    55  37  50 NE3       30.08R
$$
                ***SASKATCHEWAN***

CITY           SKY/WX    TMP DP  RH WIND       PRES   REMARKS
ESTEVAN        MOCLDY    55  48  76 CALM      30.24S
KINDERSLEY     MOCLDY    55  52  88 SW8       30.25S
LLOYDMINSTER   MOCLDY    55  50  82 VRB2      30.25F
PRINCE ALBERT  PTCLDY    57  45  62 E8        30.24R
REGINA         MOCLDY    55  46  71 NE3       30.23F
YORKTON        MOCLDY    55  45  67 CALM      30.22S



USA.gov is the U.S. government's official web portal to all federal, state and local government web resources and services.